TITAN 3C TRANSTAGE DEB, 30000

Orbit data source: Space-Track

TITAN 3C TRANSTAGE DEB, 30000 is space debris in GEO originally from a launch on Thu, 26 Sep 1968 UTC launched from the Air Force Eastern Test Range (AFETR). Debris objects in space refer to the collection of defunct objects orbiting the Earth. Examples of debris include non-operational satellites, rocket bodies, and fragments generated from explosions, collisions, or faulty payload assembly.

Loading next visibility...
Identifier
30000, 1968-081J
Orbit
GEO
Country
Flag of USUS
Related business
Manufacturer
Unknown
Mission
Spacecraft
Bus & Motor
Unknown
Mass
Unknown
Launch date (UTC)
1968-09-26 (57 years ago)
Launch vehicle
Unknown
Launch site
Air Force Eastern Test Range (AFETR)
Object type
Payload
Rocket body
Debris
Shape & HBR
Unknown shape, 1.1 m
Radar Cross Section
Medium (>0.1 m² and <1 m²)

Expand to show TLE details & history
Last TLE update: 17 hours ago

TLE from 17 hours ago
0 TITAN 3C TRANSTAGE DEB
1 30000U 68081J   25292.21110873 -.00000285  00000-0  00000-0 0  9995
2 30000   1.5018  31.8027 0106396 320.5775  18.8670  1.00914489 76802
Epoch: 2025-10-19T05:03Z
TLE epoch observation values (Epoch: 2025-10-19T05:03:59.794Z)
Latitude
-0.50661°
Longitude
-92.30525°
Altitude
35,182.804 km
Speed
3.113 km/s
True Right ascension
00h 46m 29s
True Declination
0° 30' 22"
Sunlit
Object was in daylight at epoch
Visualization orbit readout
Latitude
Unknown
Longitude
Unknown
Altitude
Unknown
Speed
Unknown
Apparent Right ascension
Unknown
Apparent Declination
Unknown
Sunlit
N/A
Visualization observer readout
Local Sidereal Time
16:42:32
Azimuth
Unknown
Elevation
Unknown
Doppler factor
Unknown
Orbital elements
Apogee altitude
36,055.173 km
Perigee altitude
35,161.732 km
Semi-major axis
41,986.589 km
Eccentricity
0.01064
Inclination
1.5018°
RAAN
31.8027°
Arg. of periapsis
320.5775°
True anomaly
19.26628°
Mean anomaly
18.867°
Eccentric anomaly
19.06613°
Mean motion
0.25228 °/min
Orbital period
1,427 mins
BSTAR
0
Loading maneuver chart data...
Computing Atmospheric mass density...

Documentation

Showing up to 5 results
|